Voltar ao catálogo

COSMOS 970 DEB

AtivoLEO
NORAD 64989·DEBRIS·🇷🇺 Russia

Lançado Dec 21, 1977 de Baikonur Cosmodrome

Loading…

Próximas Passagens (próximas 24 horas)

TLE

ObsoletoSource: Space-Track

Época: Aug 20, 2026, 06:53 UTC

1 64989U 77121DA  26232.28686639  .00000285  00000-0  36838-3 0  9993
2 64989  65.5935 171.1980 0104452 255.5931 184.2424 13.75270716593971

Acompanhe COSMOS 970 DEB em tempo real com AllMySat

Download on the App Store